TimePDT,TemperatureF,Dew PointF,Humidity,Sea Level PressureIn,VisibilityMPH,Wind Direction,Wind SpeedMPH,Gust SpeedMPH,PrecipitationIn,Events,Conditions,WindDirDegrees,DateUTC
12:53 AM,52.0,35.1,53,30.06,10.0,Calm,Calm,-,N/A,,Clear,0,2013-10-14 07:53:00
1:53 AM,50.0,37.0,61,30.06,10.0,NW,3.5,-,N/A,,Clear,320,2013-10-14 08:53:00
2:53 AM,62.1,35.1,37,30.06,10.0,North,5.8,-,N/A,,Clear,350,2013-10-14 09:53:00
3:53 AM,52.0,35.1,53,30.07,10.0,Calm,Calm,-,N/A,,Clear,0,2013-10-14 10:53:00
4:53 AM,46.0,36.0,68,30.08,10.0,Calm,Calm,-,N/A,,Clear,0,2013-10-14 11:53:00
5:53 AM,46.0,37.0,71,30.09,10.0,Calm,Calm,-,N/A,,Clear,0,2013-10-14 12:53:00
6:53 AM,44.1,37.0,76,30.11,10.0,Calm,Calm,-,N/A,,Clear,0,2013-10-14 13:53:00
7:53 AM,48.0,37.9,68,30.12,10.0,Calm,Calm,-,N/A,,Clear,0,2013-10-14 14:53:00
8:53 AM,60.1,37.0,42,30.13,10.0,Calm,Calm,-,N/A,,Clear,0,2013-10-14 15:53:00
9:53 AM,69.1,35.1,29,30.13,10.0,North,6.9,-,N/A,,Clear,360,2013-10-14 16:53:00
10:53 AM,71.1,34.0,26,30.14,10.0,North,5.8,17.3,N/A,,Clear,360,2013-10-14 17:53:00
11:53 AM,73.0,34.0,24,30.13,10.0,NNE,6.9,16.1,N/A,,Clear,20,2013-10-14 18:53:00
12:53 PM,75.0,33.1,22,30.11,10.0,North,9.2,19.6,N/A,,Clear,350,2013-10-14 19:53:00
1:53 PM,77.0,32.0,19,30.08,10.0,NNE,6.9,-,N/A,,Clear,30,2013-10-14 20:53:00
2:53 PM,79.0,28.9,16,30.05,10.0,Variable,5.8,-,N/A,,Clear,0,2013-10-14 21:53:00
3:53 PM,79.0,28.0,15,30.04,10.0,NNE,6.9,-,N/A,,Clear,20,2013-10-14 22:53:00
4:53 PM,78.1,28.9,17,30.01,10.0,Variable,4.6,-,N/A,,Clear,0,2013-10-14 23:53:00
5:53 PM,75.9,30.0,19,30.01,10.0,Calm,Calm,-,N/A,,Clear,0,2013-10-15 00:53:00
6:53 PM,66.9,30.9,26,30.02,10.0,NNW,4.6,-,N/A,,Clear,330,2013-10-15 01:53:00
7:53 PM,57.9,32.0,37,30.03,10.0,NW,3.5,-,N/A,,Clear,320,2013-10-15 02:53:00
8:53 PM,60.1,32.0,35,30.03,10.0,SW,4.6,-,N/A,,Clear,230,2013-10-15 03:53:00
9:53 PM,59.0,30.0,33,30.04,10.0,SW,4.6,-,N/A,,Clear,230,2013-10-15 04:53:00
10:53 PM,57.0,30.0,36,30.04,10.0,SW,4.6,-,N/A,,Clear,220,2013-10-15 05:53:00
11:53 PM,53.1,30.9,43,30.03,10.0,Calm,Calm,-,N/A,,Clear,0,2013-10-15 06:53:00